Stations météo

réclame
Mon MeteoGroup
Lorient Lan Bihoue, France (7205): Température de l'air & dewpoint: 15.06.2018 12:00:00 - 21.06.2018 12:00:00 (CEST)Lorient Lan Bihoue, France (7205): Température de l'air 5cm: 15.06.2018 12:00:00 - 21.06.2018 12:00:00 (CEST)Lorient Lan Bihoue, France (7205): Température de l'air -20cm: 15.06.2018 12:00:00 - 21.06.2018 12:00:00 (CEST)Lorient Lan Bihoue, France (7205): Vitesse du vent & gusts: 15.06.2018 12:00:00 - 21.06.2018 12:00:00 (CEST)Lorient Lan Bihoue, France (7205): Direction du vent: 15.06.2018 12:00:00 - 21.06.2018 12:00:00 (CEST)Lorient Lan Bihoue, France (7205): reduced air pressure: 15.06.2018 12:00:00 - 21.06.2018 12:00:00 (CEST)Lorient Lan Bihoue, France (7205): visibility: 15.06.2018 12:00:00 - 21.06.2018 12:00:00 (CEST)Lorient Lan Bihoue, France (7205): Ensoleillement: 15.06.2018 12:00:00 - 21.06.2018 12:00:00 (CEST)Lorient Lan Bihoue, France (7205): Quantités de précipitations: 15.06.2018 12:00:00 - 21.06.2018 12:00:00 (CEST)
Date & Time tt [°C] td [°C] tt 5cm [°C] tt -20cm [°C] ff [km/h] ff [knt] fx [km/h] fx [knt] dd ppp [hPa] vv [km] sd [min] rr [mm]
21.06.2018 12:00:00 18,4 10,7 20,4 20,0 32 17 47 26 NE 1024,4 20 57 0,0
21.06.2018 11:00:00 16,8 10,6 17,4 20,0 31 17 47 25 NE 1024,6 20 53 0,0
21.06.2018 10:00:00 15,4 10,6 17,6 20,2 32 17 46 25 NE 1024,4 25 49 0,0
21.06.2018 09:00:00 15,4 10,4 16,3 20,3 26 14 43 23 NE 1024,1 20 58 0,0
21.06.2018 08:00:00 15,3 11,1 14,6 20,5 24 13 44 24 NE 1023,8 53 39 0,0
21.06.2018 07:00:00 15,1 12,2 14,6 20,7 23 12 40 22 NNE 1023,3 58 0 0,0
21.06.2018 06:00:00 15,2 13,4 14,8 20,8 21 11 38 20 NNE 1022,8 58 0 0,0
21.06.2018 05:00:00 15,4 14,4 14,7 20,9 25 13 39 21 NNE 1022,5 60 0 0,0
21.06.2018 04:00:00 15,1 14,1 14,1 21,0 17 9 32 17 NNE 1022,5 60 0 0,0
21.06.2018 03:00:00 14,9 13,9 14,0 21,3 15 8 36 20 NNE 1022,7 60 0 0,0
21.06.2018 02:00:00 15,7 14,7 15,1 21,4 16 9 32 17 NNE 1022,7 48 0 0,0
21.06.2018 01:00:00 17,8 14,7 16,6 21,5 15 8 29 15 N 1022,4 53 0 0,0
21.06.2018 00:00:00 19,0 15,5 16,6 21,6 10 5 23 12 N 1022,0 52 0 0,0
20.06.2018 23:00:00 19,9 15,1 17,3 21,6 11 6 18 10 N 1021,9 56 0 0,0
20.06.2018 22:00:00 22,5 17,2 19,9 21,6 11 6 32 17 N 1020,8 48 46 0,0
20.06.2018 21:00:00 26,0 18,7 24,6 21,5 5 3 16 8 W 1020,1 20 53 0,0
20.06.2018 20:00:00 25,1 17,8 26,0 21,3 11 6 21 12 WSW 1020,0 39 57 0,0
20.06.2018 19:00:00 25,8 18,0 28,7 20,9 13 7 20 11 W 1020,1 48 60 0,0
20.06.2018 18:00:00 26,4 18,3 33,1 20,6 15 8 20 11 WSW 1020,2 20 60 0,0
20.06.2018 17:00:00 27,2 18,2 37,3 20,2 11 6 19 10 WSW 1020,2 43 60 0,0
20.06.2018 16:00:00 27,5 18,8 38,9 19,8 11 6 19 10 WSW 1020,5 46 60 0,0
20.06.2018 15:00:00 27,3 17,8 37,1 19,5 7 4 22 12 ENE 1021,1 50 60 0,0
20.06.2018 14:00:00 26,4 17,7 37,2 19,2 11 6 24 13 ENE 1021,5 54 60 0,0
20.06.2018 13:00:00 25,3 17,7 35,8 19,0 10 5 19 11 NE 1022,0 20 60 0,0
20.06.2018 12:00:00 24,5 17,7 35,5 18,8 9 5 16 9 NNE 1022,0 30 60 0,0
20.06.2018 11:00:00 23,4 18,5 30,3 18,8 9 5 16 8 NE 1022,2 18 60 0,0
20.06.2018 10:00:00 21,5 18,9 22,1 18,9 10 6 18 10 NE 1022,4 14 60 0,0
20.06.2018 09:00:00 18,8 17,5 17,5 19,0 13 7 18 10 NNE 1022,4 13 60 0,0
20.06.2018 08:00:00 16,7 16,1 12,9 19,1 8 5 14 7 NE 1022,5 13 60 0,0
20.06.2018 07:00:00 14,4 14,4 11,4 19,2 9 5 12 7 NE 1022,4 13 16 0,0
20.06.2018 06:00:00 13,8 13,8 10,3 19,4 9 5 12 7 NE 1022,5 10 0 0,0
20.06.2018 05:00:00 14,1 14,1 11,0 19,6 6 4 10 5 NE 1022,6 10 0 0,2
20.06.2018 04:00:00 14,3 14,3 10,6 19,7 7 4 11 6 ENE 1022,9 8 0 0,0
20.06.2018 03:00:00 14,6 14,6 10,3 19,9 7 4 11 6 NE 1023,1 4,9 0 0,0
20.06.2018 02:00:00 14,9 14,7 10,6 20,0 9 5 11 6 NE 1023,3 1,0 0 0,0
20.06.2018 01:00:00 15,1 14,9 11,1 20,1 5 3 8 4 NE 1023,6 4,7 0 0,0
20.06.2018 00:00:00 15,1 14,6 11,3 20,2 3 2 5 3 N 1023,7 0,9 0 0,0
19.06.2018 23:00:00 15,9 15,3 13,8 20,3 4 2 9 5 W 1023,9 8 0 0,0
19.06.2018 22:00:00 17,3 15,3 15,9 20,2 6 3 12 7 W 1023,5 17 46 0,0
19.06.2018 21:00:00 19,6 16,1 20,0 20,2 9 5 14 8 W 1023,7 21 60 0,0
19.06.2018 20:00:00 20,1 16,3 22,3 20,0 11 6 16 9 W 1024,1 19 60 0,0
19.06.2018 19:00:00 20,8 16,8 24,8 19,7 12 6 18 10 W 1024,5 19 60 0,0
19.06.2018 18:00:00 21,7 17,3 29,9 19,5 10 6 17 9 WSW 1025,0 19 60 0,0
19.06.2018 17:00:00 22,6 17,9 29,4 19,2 11 6 17 9 WSW 1025,4 47 43 0,0
19.06.2018 16:00:00 22,6 16,6 30,1 19,1 3 2 16 9 N 1025,8 18 28 0,0
19.06.2018 15:00:00 21,3 17,1 27,0 19,0 4 2 9 5 NE 1026,2 38 4 0,0
19.06.2018 14:00:00 19,7 15,8 24,8 18,9 6 4 15 8 NE 1026,7 39 0 0,0
19.06.2018 13:00:00 18,7 15,8 23,5 18,9 4 2 14 7 NE 1026,9 48 0 0,0
19.06.2018 12:00:00 17,8 15,4 21,4 18,8 7 4 15 8 E 1027,0 56 0 0,0
19.06.2018 11:00:00 17,2 15,5 19,4 18,8 8 4 14 8 NE 1027,2 56 0 0,0
19.06.2018 10:00:00 16,4 15,3 18,5 18,8 5 3 16 8 ENE 1027,4 16 0 0,0
19.06.2018 09:00:00 16,0 14,9 16,7 18,9 10 6 16 9 ENE 1027,1 60 0 0,0
19.06.2018 08:00:00 15,6 15,1 15,6 18,9 6 3 9 5 NE 1027,1 8 0 0,0
19.06.2018 07:00:00 15,4 14,9 15,4 19,0 5 3 16 9 N 1026,9 14 0 0,0
19.06.2018 06:00:00 15,5 14,9 15,3 19,1 9 5 15 8 NNE 1026,7 60 0 0,0
19.06.2018 05:00:00 15,5 14,9 15,4 19,1 6 3 16 9 N 1026,4 60 0 0,0
19.06.2018 04:00:00 15,9 15,4 15,7 19,2 8 4 19 11 NNW 1026,3 58 0 0,0
19.06.2018 03:00:00 15,7 15,2 15,6 19,3 9 5 19 10 NW 1026,6 18 0 0,0
19.06.2018 02:00:00 15,6 15,3 15,6 19,3 7 4 23 12 WNW 1026,7 60 0 0,0
19.06.2018 01:00:00 15,6 15,4 13,4 19,5 11 6 21 11 NW 1027,1 19 0 0,0
19.06.2018 00:00:00 14,8 14,2 13,5 19,5 8 5 15 8 WNW 1027,2 15 0 0,0
18.06.2018 23:00:00 16,1 15,1 15,8 19,5 8 5 13 7 WNW 1027,1 35 0 0,0
18.06.2018 22:00:00 16,2 14,9 16,3 19,5 8 5 18 10 W 1026,8 20 25 0,0
18.06.2018 21:00:00 17,1 15,1 18,2 19,5 14 8 30 16 W 1026,6 27 3 0,0
18.06.2018 20:00:00 17,4 14,9 19,4 19,4 19 10 29 16 W 1026,3 43 0 0,0
18.06.2018 19:00:00 18,0 15,8 20,4 19,2 17 9 32 18 W 1026,0 37 36 0,0
18.06.2018 18:00:00 18,3 15,7 22,1 19,0 24 13 36 19 W 1026,2 20 30 0,0
18.06.2018 17:00:00 19,0 16,0 23,4 18,8 23 12 33 18 W 1026,0 19 31 0,0
18.06.2018 16:00:00 19,8 15,4 27,6 18,6 22 12 31 17 W 1025,9 18 53 0,0
18.06.2018 15:00:00 20,5 15,9 24,8 18,4 12 6 27 14 NNW 1025,7 20 39 0,0
18.06.2018 14:00:00 19,2 14,7 24,3 18,3 11 6 25 13 NW 1025,7 34 6 0,0
18.06.2018 13:00:00 19,1 15,0 22,7 18,2 13 7 24 13 WNW 1025,6 19 23 0,0
18.06.2018 12:00:00 17,5 13,6 18,9 18,2 14 8 26 14 NW 1025,5 20 12 0,0
18.06.2018 11:00:00 16,6 15,0 16,9 18,2 10 6 20 11 NW 1025,3 19 0 0,0
18.06.2018 10:00:00 15,8 15,0 16,1 18,3 7 4 16 9 W 1024,9 14 0 0,0
18.06.2018 09:00:00 15,1 14,5 15,3 18,3 6 4 17 9 S 1024,4 17 0 0,0
18.06.2018 08:00:00 14,6 14,3 14,3 18,4 7 4 15 8 WSW 1024,0 15 0 0,0
18.06.2018 07:00:00 14,3 14,0 14,1 18,4 8 4 16 9 W 1023,7 17 0 0,0
18.06.2018 06:00:00 14,4 14,4 14,4 18,5 11 6 20 11 W 1023,3 10 0 0,0
18.06.2018 05:00:00 14,5 14,5 14,5 18,6 9 5 21 12 W 1023,0 5 0 0,0
18.06.2018 04:00:00 14,7 14,7 14,7 18,6 12 6 20 11 W 1022,8 4,3 0 0,0
18.06.2018 03:00:00 14,9 14,9 15,0 18,7 13 7 28 15 W 1022,7 5 0 0,0
18.06.2018 02:00:00 15,3 15,3 15,4 18,8 12 6 23 12 W 1022,6 2,1 0 0,0
18.06.2018 01:00:00 15,4 15,4 15,6 18,8 13 7 22 12 W 1022,7 0,9 0 0,0
18.06.2018 00:00:00 15,6 15,6 15,8 18,8 14 7 29 16 W 1022,6 1,1 0 0,2
17.06.2018 23:00:00 15,9 15,9 16,0 18,8 16 9 28 15 W 1022,5 1,9 0 0,0
17.06.2018 22:00:00 16,1 16,1 16,2 18,9 16 9 32 18 W 1022,2 2,6 0 0,2
17.06.2018 21:00:00 16,2 16,2 16,5 18,9 18 10 30 16 W 1022,0 2,6 0 0,0
17.06.2018 20:00:00 16,3 16,3 16,6 18,9 18 10 35 19 WSW 1021,7 1,6 0 0,2
17.06.2018 19:00:00 16,5 16,5 16,5 18,9 21 11 36 19 WSW 1021,7 6 0 0,0
17.06.2018 18:00:00 15,9 15,9 16,3 18,8 21 11 39 21 WSW 1021,8 5 0 0,2
17.06.2018 17:00:00 15,7 15,7 16,6 18,7 23 12 35 19 WSW 1022,1 1,8 0 0,6
17.06.2018 16:00:00 15,4 15,2 16,6 18,6 21 12 34 19 SW 1022,4 3,2 0 0,2
17.06.2018 15:00:00 15,0 14,4 15,9 18,5 23 13 33 18 WSW 1022,6 2,1 0 0,2
17.06.2018 14:00:00 14,9 14,4 15,7 18,4 18 10 39 21 WSW 1022,5 2,6 1 0,2
17.06.2018 13:00:00 17,6 12,3 23,6 18,3 25 13 36 19 WSW 1022,3 19 28 0,0
17.06.2018 12:00:00 17,4 11,9 20,2 18,2 25 14 37 20 WSW 1022,2 19 31 0,0
17.06.2018 11:00:00 16,7 11,2 20,7 18,3 23 12 40 21 W 1022,4 41 44 0,0
17.06.2018 10:00:00 16,1 11,0 16,0 18,2 13 7 23 12 W 1022,1 40 5 0,0
17.06.2018 09:00:00 15,3 10,5 15,1 18,3 15 8 24 13 W 1021,9 20 14 0,0
17.06.2018 08:00:00 14,1 10,3 13,5 18,4 9 5 18 10 WSW 1021,7 48 5 0,0
17.06.2018 07:00:00 13,4 10,7 12,7 18,5 7 4 12 7 W 1021,2 42 0 0,0
17.06.2018 06:00:00 13,2 10,4 12,7 18,6 4 2 10 6 ESE 1021,1 49 0 0,0
17.06.2018 05:00:00 13,2 10,4 12,7 18,7 5 3 15 8 W 1021,1 41 0 0,0
17.06.2018 04:00:00 13,3 10,1 12,6 18,8 8 5 13 7 W 1021,3 42 0 0,4
17.06.2018 03:00:00 13,0 10,0 12,5 18,9 7 4 12 7 WNW 1021,1 43 0 0,0
17.06.2018 02:00:00 13,1 9,5 12,3 19,0 6 3 13 7 NW 1021,1 48 0 0,0
17.06.2018 01:00:00 12,9 9,2 10,3 19,1 8 4 16 9 WNW 1021,3 49 0 0,0
17.06.2018 00:00:00 11,7 9,3 8,6 19,2 8 5 15 8 W 1021,2 40 0 0,0
16.06.2018 23:00:00 12,9 9,2 11,6 19,3 10 5 16 9 WNW 1021,0 44 0 0,0
16.06.2018 22:00:00 14,0 10,8 13,2 19,3 6 4 22 12 WNW 1020,2 20 17 0,0
16.06.2018 21:00:00 15,4 10,8 15,3 19,3 16 8 23 13 W 1019,9 20 13 0,0
16.06.2018 20:00:00 16,5 12,1 17,7 19,2 11 6 28 15 NW 1019,3 19 24 0,0
16.06.2018 19:00:00 16,6 12,9 18,8 19,2 11 6 26 14 WNW 1019,1 34 0 0,0
16.06.2018 18:00:00 16,6 14,6 19,6 19,1 18 10 36 20 W 1019,1 18 1 0,0
16.06.2018 17:00:00 16,8 15,3 17,1 19,0 19 10 36 19 WSW 1019,0 46 2 0,0
16.06.2018 16:00:00 15,5 14,9 16,0 18,9 18 10 29 16 WSW 1019,0 4,0 0 0,2
16.06.2018 15:00:00 15,8 13,3 16,5 18,7 16 8 27 14 WSW 1019,2 36 0 0,0
16.06.2018 14:00:00 16,8 12,5 22,3 18,6 23 12 35 19 WSW 1019,3 55 34 0,0
16.06.2018 13:00:00 18,3 12,7 21,6 18,5 19 10 35 19 WSW 1019,1 60 42 0,0
16.06.2018 12:00:00 17,7 11,7 21,7 18,4 18 10 29 16 WSW 1019,0 60 35 0,0
16.06.2018 11:00:00 16,5 12,1 17,9 18,4 18 10 26 14 WSW 1019,1 19 15 0,0
16.06.2018 10:00:00 15,3 13,0 14,7 18,5 11 6 19 11 SSW 1018,9 43 2 0,0
16.06.2018 09:00:00 14,7 12,0 14,7 18,5 8 4 13 7 S 1018,8 10 15 0,0
16.06.2018 08:00:00 13,4 11,3 11,6 18,7 3 2 6 3 E 1018,4 35 35 0,0
16.06.2018 07:00:00 11,6 11,4 7,6 18,8 2 1 4 2 ENE 1018,3 20 0 0,0
16.06.2018 06:00:00 10,5 9,9 7,6 19,0 4 2 5 3 E 1018,1 26 0 0,0
16.06.2018 05:00:00 10,9 10,0 8,1 19,1 0 0 4 2 N 1018,2 15 0 0,0
16.06.2018 04:00:00 11,1 10,0 8,5 19,2 3 1 6 4 WNW 1018,9 23 0 0,0
16.06.2018 03:00:00 11,8 10,9 9,6 19,3 4 2 8 5 W 1018,9 34 0 0,0
16.06.2018 02:00:00 11,8 10,0 9,6 19,5 5 3 10 5 N 1018,9 37 0 0,0
16.06.2018 01:00:00 12,8 10,2 10,4 19,7 6 3 11 6 NW 1019,3 46 0 0,0
16.06.2018 00:00:00 12,3 9,7 10,0 19,7 6 3 12 7 NW 1019,3 45 0 0,0
15.06.2018 23:00:00 13,5 9,9 11,9 19,8 6 3 14 8 NW 1019,4 43 0 0,0
15.06.2018 22:00:00 15,2 10,6 14,3 19,8 9 5 16 9 W 1019,1 46 32 0,0
15.06.2018 21:00:00 16,8 11,5 17,1 19,7 11 6 23 12 W 1019,0 20 55 0,0
15.06.2018 20:00:00 17,9 11,7 19,3 19,7 14 8 22 12 W 1018,9 20 15 0,0
15.06.2018 19:00:00 18,7 11,7 20,7 19,5 17 9 29 16 WSW 1019,1 20 7 0,0
15.06.2018 18:00:00 18,7 10,5 21,8 19,3 10 5 28 15 NNE 1019,3 20 27 0,0
15.06.2018 17:00:00 18,9 12,2 22,6 19,1 18 10 29 15 W 1019,6 20 22 0,0
15.06.2018 16:00:00 19,8 10,2 22,6 19,0 10 5 28 15 NW 1019,8 20 36 0,0
15.06.2018 15:00:00 18,4 10,7 23,2 18,8 8 5 21 11 NNW 1019,7 40 12 0,0
15.06.2018 14:00:00 17,7 10,3 22,3 18,7 11 6 23 12 NW 1020,1 20 8 0,0
15.06.2018 13:00:00 18,3 10,4 20,2 18,6 9 5 23 12 NNE 1019,7 51 13 0,0
15.06.2018 12:00:00 16,5 9,9 19,1 18,6 9 5 20 11 NNW 1019,9 40 18 0,0

tt = Température de l'air
td = dewpoint
tt 5cm = Température de l'air 5cm
tt -20cm = Température de l'air -20cm
ff = Vitesse du vent
fx = gusts
dd = Direction du vent
ppp = reduced air pressure
vv = visibility
sd = Ensoleillement
rr = Quantités de précipitations

stations d'obs. à proximité